Weather in Polanur

Russia / Mari El Republic     56°55′19″N   49°10′16″E
temp.,
°C
wind,
m/s
gust,
m/s
humid.,
%
clouds,
%
prec.,
mm/h
press.,
hPa
HPBL,
m
27 february, sat
sat2700:00−16se81495100 3.8 1002679
03:00−15ese71294100 5.7 1001603
06:00−15ese71295100 1.4 1000525
09:00−14e61093100 1.9 1000554
12:00−13ene6992100 0.3 1001595
15:00−12ne6892100 0.5 1003613
18:00−13nne51094100 0.3 1004456
21:00−16nne5109696 0.3 1006225
28 february, sun
sun2800:00−19nne489781 0.0 1007142
03:00−21n479870 0.0 1009129
06:00−22n469868 0.0 1010108
09:00−20n469659 0.0 1011228
12:00−17n469267 0.0 1011367
15:00−16n479082 0.0 1013500
18:00−20n349762 0.0 101542
21:00−21n349837 0.0 101732
1 march, mon
mon100:00−22n3310033 0.0 101920
03:00−23n2210031 0.0 102020
06:00−23n22990 0.0 102220
09:00−20nnw12960 0.0 102366
12:00−16w22881 0.0 1022225
15:00−14w249117 0.0 1022278
18:00−17sw34930 0.0 102034
21:00−17sw479712 0.0 1019122
2 march, tue
tue200:00−17ssw5119674 0.0 1015211
03:00−15ssw6119587 0.1 1011266
06:00−12ssw71394100 0.6 1007388
09:00−10ssw71193100 1.2 1003390
12:00−6s61095100 0.9 1001419
15:00−3s5896100 2.0 999391
18:00−3sse3697100 1.5 999237
21:00−4ne3497100 2.6 999112
3 march, wed
wed300:00−9nne3396100 0.4 100055
03:00−10nnw3497100 0.4 100151
06:00−10nnw359799 0.1 100290
09:00−7nnw489598 0.3 1003291
12:00−4nw589498 0.2 1005489
15:00−4nnw7109299 0.6 1006711
18:00−8nnw4989100 0.1 1007212
21:00−11nw479450 0.1 100994